Waarnemingen

Advertentie
Mijn weer
Manresa, Spanje (8174): temperatuur & dauwpunt: 08.08.2018 17:00:00 - 14.08.2018 17:00:00 (CEST)Manresa, Spanje (8174): windsnelheid & windstoten: 08.08.2018 17:00:00 - 14.08.2018 17:00:00 (CEST)Manresa, Spanje (8174): windrichting: 08.08.2018 17:00:00 - 14.08.2018 17:00:00 (CEST)Manresa, Spanje (8174): luchtdruk: 08.08.2018 17:00:00 - 14.08.2018 17:00:00 (CEST)Manresa, Spanje (8174): zicht: 08.08.2018 17:00:00 - 14.08.2018 17:00:00 (CEST)Manresa, Spanje (8174): Zonneschijnduur: 08.08.2018 17:00:00 - 14.08.2018 17:00:00 (CEST)Manresa, Spanje (8174): neerslag: 08.08.2018 17:00:00 - 14.08.2018 17:00:00 (CEST)
Datum & Tijd tt [°C] td [°C] ff [km/u] ff [kn] fx [km/u] fx [kn] dd ppp [hPa] vv [km] sd [min] rr [mm]
14.08.2018 17:00:00 - - - - - - - - - - -
14.08.2018 16:00:00 30,4 9,3 14 7 27 15 W 1014,6 20 60 0,0
14.08.2018 15:00:00 29,4 10,5 15 8 32 17 W 1015,1 20 60 0,0
14.08.2018 14:00:00 28,7 10,9 12 7 27 15 W 1015,6 20 52 -
14.08.2018 13:00:00 - - - - - - - - - - -
14.08.2018 12:00:00 - - - - - - - - - - -
14.08.2018 11:00:00 - - - - - - - - - - -
14.08.2018 10:00:00 - - - - - - - - - - -
14.08.2018 09:00:00 - - - - - - - - - - -
14.08.2018 08:00:00 - - - - - - - - - - -
14.08.2018 07:00:00 - - - - - - - - - - -
14.08.2018 06:00:00 - - - - - - - - - - -
14.08.2018 05:00:00 - - - - - - - - - - -
14.08.2018 04:00:00 - - - - - - - - - - -
14.08.2018 03:00:00 - - - - - - - - - - -
14.08.2018 02:00:00 - - - - - - - - - - -
14.08.2018 01:00:00 - - - - - - - - - - -
14.08.2018 00:00:00 - - - - - - - - - - -
13.08.2018 23:00:00 - - - - - - - - - - -
13.08.2018 22:00:00 - - - - - - - - - - -
13.08.2018 21:00:00 - - - - - - - - - - -
13.08.2018 20:00:00 - - - - - - - - - - -
13.08.2018 19:00:00 - - - - - - - - - - -
13.08.2018 18:00:00 - - - - - - - - - - -
13.08.2018 17:00:00 - - - - - - - - - - -
13.08.2018 16:00:00 - - - - - - - - - - -
13.08.2018 15:00:00 - - - - - - - - - - -
13.08.2018 14:00:00 - - - - - - - - - - -
13.08.2018 13:00:00 - - - - - - - - - - -
13.08.2018 12:00:00 - - - - - - - - - - -
13.08.2018 11:00:00 - - - - - - - - - - -
13.08.2018 10:00:00 - - - - - - - - - - -
13.08.2018 09:00:00 - - - - - - - - - - -
13.08.2018 08:00:00 - - - - - - - - - - -
13.08.2018 07:00:00 - - - - - - - - - - -
13.08.2018 06:00:00 - - - - - - - - - - -
13.08.2018 05:00:00 - - - - - - - - - - -
13.08.2018 04:00:00 - - - - - - - - - - -
13.08.2018 03:00:00 - - - - - - - - - - -
13.08.2018 02:00:00 - - - - - - - - - - -
13.08.2018 01:00:00 - - - - - - - - - - -
13.08.2018 00:00:00 - - - - - - - - - - -
12.08.2018 23:00:00 - - - - - - - - - - -
12.08.2018 22:00:00 - - - - - - - - - - -
12.08.2018 21:00:00 - - - - - - - - - - -
12.08.2018 20:00:00 - - - - - - - - - - -
12.08.2018 19:00:00 - - - - - - - - - - -
12.08.2018 18:00:00 - - - - - - - - - - -
12.08.2018 17:00:00 - - - - - - - - - - -
12.08.2018 16:00:00 - - - - - - - - - - -
12.08.2018 15:00:00 - - - - - - - - - - -
12.08.2018 14:00:00 - - - - - - - - - - -
12.08.2018 13:00:00 - - - - - - - - - - -
12.08.2018 12:00:00 - - - - - - - - - - -
12.08.2018 11:00:00 - - - - - - - - - - -
12.08.2018 10:00:00 - - - - - - - - - - -
12.08.2018 09:00:00 - - - - - - - - - - -
12.08.2018 08:00:00 - - - - - - - - - - -
12.08.2018 07:00:00 - - - - - - - - - - -
12.08.2018 06:00:00 - - - - - - - - - - -
12.08.2018 05:00:00 - - - - - - - - - - -
12.08.2018 04:00:00 - - - - - - - - - - -
12.08.2018 03:00:00 - - - - - - - - - - -
12.08.2018 02:00:00 - - - - - - - - - - -
12.08.2018 01:00:00 - - - - - - - - - - -
12.08.2018 00:00:00 - - - - - - - - - - -
11.08.2018 23:00:00 - - - - - - - - - - -
11.08.2018 22:00:00 - - - - - - - - - - -
11.08.2018 21:00:00 - - - - - - - - - - -
11.08.2018 20:00:00 - - - - - - - - - - -
11.08.2018 19:00:00 - - - - - - - - - - -
11.08.2018 18:00:00 - - - - - - - - - - -
11.08.2018 17:00:00 - - - - - - - - - - -
11.08.2018 16:00:00 - - - - - - - - - - -
11.08.2018 15:00:00 - - - - - - - - - - -
11.08.2018 14:00:00 - - - - - - - - - - -
11.08.2018 13:00:00 - - - - - - - - - - -
11.08.2018 12:00:00 - - - - - - - - - - -
11.08.2018 11:00:00 - - - - - - - - - - -
11.08.2018 10:00:00 - - - - - - - - - - -
11.08.2018 09:00:00 - - - - - - - - - - -
11.08.2018 08:00:00 - - - - - - - - - - -
11.08.2018 07:00:00 - - - - - - - - - - -
11.08.2018 06:00:00 - - - - - - - - - - -
11.08.2018 05:00:00 - - - - - - - - - - -
11.08.2018 04:00:00 - - - - - - - - - - -
11.08.2018 03:00:00 - - - - - - - - - - -
11.08.2018 02:00:00 - - - - - - - - - - -
11.08.2018 01:00:00 - - - - - - - - - - -
11.08.2018 00:00:00 - - - - - - - - - - -
10.08.2018 23:00:00 - - - - - - - - - - -
10.08.2018 22:00:00 - - - - - - - - - - -
10.08.2018 21:00:00 - - - - - - - - - - -
10.08.2018 20:00:00 - - - - - - - - - - -
10.08.2018 19:00:00 - - - - - - - - - - -
10.08.2018 18:00:00 - - - - - - - - - - -
10.08.2018 17:00:00 - - - - - - - - - - -
10.08.2018 16:00:00 - - - - - - - - - - -
10.08.2018 15:00:00 - - - - - - - - - - -
10.08.2018 14:00:00 - - - - - - - - - - -
10.08.2018 13:00:00 - - - - - - - - - - -
10.08.2018 12:00:00 - - - - - - - - - - -
10.08.2018 11:00:00 - - - - - - - - - - -
10.08.2018 10:00:00 - - - - - - - - - - -
10.08.2018 09:00:00 - - - - - - - - - - -
10.08.2018 08:00:00 - - - - - - - - - - -
10.08.2018 07:00:00 - - - - - - - - - - -
10.08.2018 06:00:00 - - - - - - - - - - -
10.08.2018 05:00:00 - - - - - - - - - - -
10.08.2018 04:00:00 - - - - - - - - - - -
10.08.2018 03:00:00 - - - - - - - - - - -
10.08.2018 02:00:00 - - - - - - - - - - -
10.08.2018 01:00:00 - - - - - - - - - - -
10.08.2018 00:00:00 - - - - - - - - - - -
09.08.2018 23:00:00 - - - - - - - - - - -
09.08.2018 22:00:00 - - - - - - - - - - -
09.08.2018 21:00:00 - - - - - - - - - - -
09.08.2018 20:00:00 - - - - - - - - - - -
09.08.2018 19:00:00 - - - - - - - - - - -
09.08.2018 18:00:00 - - - - - - - - - - -
09.08.2018 17:00:00 - - - - - - - - - - -
09.08.2018 16:00:00 - - - - - - - - - - -
09.08.2018 15:00:00 - - - - - - - - - - -
09.08.2018 14:00:00 27,7 19,2 13 7 29 16 Z 1013,2 20 19 -
09.08.2018 13:00:00 29,3 20,2 11 6 23 12 Z 1013,0 20 16 0,0
09.08.2018 12:00:00 26,7 19,3 4 2 11 6 O 1014,1 20 26 0,0
09.08.2018 11:00:00 24,9 17,9 4 2 8 5 N 1013,9 16 15 0,0
09.08.2018 10:00:00 22,8 18,3 4 2 9 5 NNO 1014,3 14 3 0,0
09.08.2018 09:00:00 21,7 16,9 4 2 14 8 ONO 1014,2 19 0 0,0
09.08.2018 08:00:00 21,2 17,0 6 4 11 6 NO 1013,9 12 0 -
09.08.2018 07:00:00 21,1 16,9 5 3 11 6 NO 1013,6 17 0 0,0
09.08.2018 06:00:00 21,7 16,9 1 1 10 5 N 1013,7 19 0 0,0
09.08.2018 05:00:00 21,8 16,7 8 4 14 8 NO 1013,5 20 0 0,0
09.08.2018 04:00:00 22,2 16,9 9 5 15 8 NO 1013,7 17 0 0,0
09.08.2018 03:00:00 22,8 16,6 3 2 7 4 NO 1013,7 20 0 0,0
09.08.2018 02:00:00 23,1 16,4 4 2 11 6 ONO 1013,5 20 0 -
09.08.2018 01:00:00 23,6 16,1 6 3 17 9 ONO 1014,1 20 0 0,0
09.08.2018 00:00:00 24,5 15,7 9 5 14 8 ONO 1013,9 20 0 0,0
08.08.2018 23:00:00 25,1 15,4 5 3 14 7 NNO 1014,8 20 0 0,0
08.08.2018 22:00:00 25,9 16,1 9 5 21 12 ONO 1013,3 20 0 0,0
08.08.2018 21:00:00 27,6 18,3 10 5 20 11 WZW 1013,3 20 0 0,0
08.08.2018 20:00:00 29,2 18,0 10 5 21 12 Z 1012,2 20 0 -
08.08.2018 19:00:00 30,3 19,3 8 4 28 15 ZZO 1012,1 20 35 0,0
08.08.2018 18:00:00 31,7 18,3 17 9 33 18 ZZW 1011,6 20 60 0,0
08.08.2018 17:00:00 32,2 19,5 16 9 36 19 Z 1011,6 20 56 0,0

tt = temperatuur
td = dauwpunt
ff = windsnelheid
fx = windstoten
dd = windrichting
ppp = luchtdruk
vv = zicht
sd = Zonneschijnduur
rr = neerslag

Weerstations in de omgeving